Printer-friendly version

IAU Minor Planet Center

Minor Planet Center

MPEC 2010-E14 : 2010 CC180

The following Minor Planet Electronic Circular may be linked-to from your own Web pages, but must not otherwise be redistributed electronically.

A form allowing access to any MPEC is at the bottom of this page.


Read MPEC 2010-E13 Read MPEC 2010-E15


M.P.E.C. 2010-E14                                Issued 2010 Mar. 5, 12:00 UT

     The Minor Planet Electronic Circulars contain information on unusual
         minor planets and routine data on comets.  They are published
   on behalf of Commission 20 of the International Astronomical Union by the
          Minor Planet Center, Smithsonian Astrophysical Observatory,
                          Cambridge, MA 02138, U.S.A.

             Prepared using the Tamkin Foundation Computer Network

                              MPC@CFA.HARVARD.EDU
       URL http://www.minorplanetcenter.org/iau/mpc.html  ISSN 1523-6714

                                  2010 CC180

Observations:
     K10CI0C* C2010 02 12.04578 12 10 26.82 +14 21 03.0          18.6 V EE014J75
     K10CI0C  C2010 02 12.05978 12 10 26.68 +14 20 48.2          18.6 V EE014J75
     K10CI0C  C2010 02 12.07380 12 10 26.52 +14 20 33.4          18.2 V EE014J75
     K10CI0C  C2010 02 19.43888 12 07 52.42 +11 59 23.4          18.4 V EE014703
     K10CI0C  C2010 02 19.44792 12 07 52.10 +11 59 11.9          18.3 V EE014703
     K10CI0C  C2010 02 19.45700 12 07 51.70 +11 58 59.8          18.4 V EE014703
     K10CI0C  C2010 02 19.46615 12 07 51.31 +11 58 47.7          18.5 V EE014703
     K10CI0C  C2010 03 05.34423 11 53 32.24 +05 55 29.7          17.6 V EE014703
     K10CI0C  C2010 03 05.35096 11 53 31.56 +05 55 17.2          17.5 V EE014703
     K10CI0C  C2010 03 05.35766 11 53 30.91 +05 55 04.5          17.6 V EE014703
     K10CI0C  C2010 03 05.36433 11 53 30.30 +05 54 51.8          17.7 V EE014703
     K10CI0C  C2010 03 05.39495011 53 26.93 +05 53 51.0          17.4 V EE014H21
     K10CI0C  C2010 03 05.40093811 53 26.37 +05 53 39.8          17.3 V EE014H21
     K10CI0C  C2010 03 05.40198 11 53 26.66 +05 53 41.1          17.6 V EE014703
     K10CI0C  C2010 03 05.40704 11 53 26.16 +05 53 30.8          17.6 V EE014703
     K10CI0C  C2010 03 05.40722611 53 25.77 +05 53 27.8          17.4 V EE014H21
     K10CI0C  C2010 03 05.41216 11 53 25.65 +05 53 20.9          17.5 V EE014703
     K10CI0C  C2010 03 05.41729 11 53 25.15 +05 53 12.1          17.8 V EE014703
     K10CI0C  C2010 03 05.44852 11 53 22.20 +05 52 13.6          17.4 R EE014926
     K10CI0C  C2010 03 05.45051 11 53 22.00 +05 52 09.7          17.4 R EE014926
     K10CI0C  C2010 03 05.45252 11 53 21.81 +05 52 05.7          17.4 R EE014926

Observer details:
703 Catalina Sky Survey.  Observers R. E. Hill, S. M. Larson, A. . D. Grauer.
    Measurers J. D. Ahern, E. C. Beshore, A. Boattini, G. J. Garradd,
    A. R. Gibbs, A. D. Grauer, R. E. Hill, R. A. Kowalski, S. M. Larson,
    R. H. McNaught.  0.68-m Schmidt + CCD.
926 Tenagra II Observatory.  Observers P. R. Holvorcem, M. Schwartz.  Measurer
    P. R. Holvorcem.  0.81-m f/7 Ritchey-Chretien + CCD.
H21 Astronomical Research Observatory, Westfield.  Observer R. Holmes.
    Measurer S. Foglia.
J75 OAM Observatory, La Sagra.  Observers S. Sanchez, J. Nomen, R. Stoss,
    W. K. Y. Yeung, J. Rodriguez.  0.45-m f/2.8 reflector + CCD.

Orbital elements:
2010 CC180                                               Earth MOID = 0.3028 AU
Epoch 2010 Jan. 4.0 TT = JDT 2455200.5                  MPC
M 315.66951              (2000.0)            P               Q
n   0.38427419     Peri.  216.70492     -0.87064034     +0.49069841
a   1.8737367      Node   352.43713     -0.36502944     -0.69166923
e   0.3217316      Incl.   15.26317     -0.32975582     -0.52991390
P   2.56           H   18.4           G   0.15           U   5
Residuals in seconds of arc
100212 J75  0.4-  0.4+    100305 703  0.2+  0.0     100305 703  0.0   0.5-
100212 J75  0.1+  0.0     100305 703  0.2-  0.2+    100305 H21  0.0   0.2-
100212 J75  0.4+  0.4-    100305 703  0.3-  0.1+    100305 703  0.3-  0.7-
100219 703  0.4-  0.2+    100305 703  0.2+  0.0     100305 703  0.4-  0.2+
100219 703  0.4+  0.3+    100305 H21  0.0   0.2-    100305 926  0.3+  0.4+
100219 703  0.1+  0.1-    100305 H21  0.1+  0.1-    100305 926  0.1+  0.3+
100219 703  0.0   0.4-    100305 703  0.1+  0.3+    100305 926  0.1+  0.1+

Ephemeris:
2010 CC180               a,e,i = 1.87, 0.32, 15                  q = 1.2709
Date    TT    R. A. (2000) Decl.     Delta      r     Elong.  Phase     V
2010 03 05    11 54.04   +06 06.4    0.371    1.355   167.0     9.5    17.5
2010 03 15    11 37.01   +00 19.8    0.335    1.329   178.0     1.5    16.8
2010 03 25    11 17.21   -06 17.7    0.318    1.307   164.8    11.5    17.2
2010 04 04    10 59.02   -12 57.5    0.320    1.290   151.3    21.9    17.5
2010 04 14    10 46.20   -18 54.9    0.336    1.278   139.7    30.5    17.9
2010 04 24    10 40.91   -23 54.1    0.363    1.272   130.5    37.0    18.2
2010 05 04    10 43.45   -28 01.5    0.397    1.272   123.6    41.3    18.5
2010 05 14    10 53.17   -31 27.8    0.435    1.277   118.6    44.0    18.8
2010 05 24    11 09.33   -34 23.3    0.477    1.289   115.0    45.4    19.1
2010 06 03    11 31.03   -36 53.4    0.521    1.305   112.5    45.9    19.3
2010 06 13    11 57.47   -38 58.9    0.569    1.327   110.6    45.8    19.5
2010 06 23    12 27.92   -40 39.7    0.621    1.353   109.1    45.2    19.8
2010 07 03    13 01.42   -41 54.0    0.679    1.383   107.7    44.5    20.0
2010 07 13    13 36.97   -42 40.3    0.743    1.417   106.2    43.6    20.2
2010 07 23    14 13.61   -42 58.9    0.815    1.453   104.5    42.6    20.4
2010 08 02    14 50.33   -42 51.4    0.894    1.491   102.5    41.6    20.7
2010 08 12    15 26.37   -42 20.5    0.982    1.531   100.2    40.6    20.9
2010 08 22    16 01.23   -41 30.1    1.079    1.572    97.5    39.6    21.1
2010 09 01    16 34.56   -40 23.7    1.184    1.614    94.5    38.6    21.3
2010 09 11    17 06.25   -39 04.6    1.297    1.657    91.1    37.4    21.6
2010 09 21    17 36.33   -37 35.5    1.416    1.700    87.5    36.2    21.8
2010 10 01    18 04.84   -35 58.5    1.542    1.742    83.6    34.8    22.0

Timothy B. Spahr             (C) Copyright 2010 MPC           M.P.E.C. 2010-E14

Read MPEC 2010-E13 Read MPEC 2010-E15


MPEC number:

Enter an
MPEC number in one of the following forms:
  • 1997-B01 (the full form)
  • J97B01 (the packed version of the full form)
  • B01 (the abbreviated form)

Valid HTML 4.01!